WA9AFM Weather Reports


time (UTC)temp
C
wind
direction
speed
KPH
gust
KPH
rain 1hr
cm
rain 24hr
cm
rain mn
cm
humidity
%
barometer
mb
20260506025650 9 178 0.0 16.1 0.00 0.00 0.00 84 1006.6
20260506024814 9 108 1.6 17.7 0.00 0.00 0.00 84 1007.7
20260506024151 9 205 1.6 16.1 0.00 0.00 0.00 83 1006.8
20260506023327 9 307 1.6 20.9 0.00 0.00 0.00 83 1007.6
20260506022650 9 40 3.2 16.1 0.00 0.00 0.00 82 1006.7
20260506021825 9 234 6.4 17.7 0.00 0.00 0.00 82 1007.6
20260506021151 9 122 4.8 16.1 0.00 0.00 0.00 82 1006.5
20260506020323 9 135 3.2 17.7 0.00 0.00 0.00 82 1007.5
20260506015651 9 192 3.2 16.1 0.00 0.00 0.00 82 1006.4
20260506014841 9 210 1.6 16.1 0.00 0.00 0.00 82 1007.3
20260506014150 9 208 3.2 16.1 0.00 0.00 0.00 82 1006.1
20260506013320 9 199 3.2 16.1 0.00 0.00 0.00 82 1007.1
20260506012651 10 227 0.0 16.1 0.00 0.00 0.00 82 1006.0
20260506011818 10 180 0.0 6.4 0.00 0.00 0.00 82 1007.0
20260506011151 10 163 0.0 16.1 0.00 0.00 0.00 81 1005.8
20260506010319 10 206 3.2 12.9 0.00 0.00 0.00 81 1006.6
20260506005651 10 208 0.0 16.1 0.00 0.00 0.00 80 1005.2
20260506004828 10 163 4.8 11.3 0.00 0.00 0.00 80 1006.2
20260506004150 10 181 1.6 16.1 0.00 0.00 0.00 79 1004.8
20260506003326 10 222 3.2 20.9 0.00 0.00 0.00 77 1005.9
20260506002652 10 116 0.0 16.1 0.00 0.00 0.00 76 1004.7
20260506001823 11 192 0.0 8.0 0.00 0.00 0.00 76 1005.8
20260506001150 11 196 0.0 16.1 0.00 0.00 0.00 76 1004.6
20260506000323 11 195 3.2 12.9 0.00 0.00 0.00 75 1005.9
20260505235650 11 170 0.0 16.1 0.00 0.00 0.00 75 1004.4
20260505234821 11 217 3.2 14.5 0.00 0.00 0.00 75 1005.3
20260505234151 11 152 0.0 16.1 0.00 0.00 0.00 75 1004.5
20260505233322 11 102 4.8 17.7 0.00 0.00 0.00 75 1005.6
20260505232650 11 121 6.4 16.1 0.00 0.00 0.00 76 1004.5
20260505231821 11 196 1.6 16.1 0.00 0.00 0.00 76 1006.0
20260505231151 11 208 1.6 16.1 0.00 0.00 0.00 76 1004.3
20260505230340 11 201 1.6 16.1 0.00 0.00 0.00 76 1005.4
20260505225650 11 170 0.0 16.1 0.00 0.00 0.00 76 1004.0
20260505224820 11 123 1.6 12.9 0.00 0.00 0.00 76 1005.4
20260505224151 11 199 0.0 16.1 0.00 0.00 0.00 76 1004.4
20260505223322 11 185 1.6 9.7 0.00 0.00 0.00 76 1005.1
20260505222651 11 194 8.0 16.1 0.00 0.00 0.00 76 1003.8
20260505221821 12 209 6.4 20.9 0.00 0.00 0.00 76 1005.0
20260505221150 12 141 1.6 16.1 0.00 0.00 0.00 76 1003.7
20260505220341 11 28 4.8 19.3 0.00 0.00 0.00 76 1004.5
20260505215651 12 193 3.2 16.1 0.00 0.00 0.00 76 1003.2
20260505214823 12 213 4.8 17.7 0.00 0.00 0.00 76 1004.5
20260505214150 12 185 8.0 16.1 0.00 0.00 0.00 76 1003.3
20260505213322 12 203 3.2 19.3 0.00 0.00 0.00 75 1004.6
20260505212650 12 177 8.0 16.1 0.00 0.00 0.00 75 1003.4
20260505211821 12 144 6.4 17.7 0.00 0.00 0.00 75 1003.7
20260505211151 12 222 11.3 16.1 0.00 0.00 0.00 75 1002.3
20260505210321 12 203 3.2 17.7 0.00 0.00 0.00 76 1003.8
20260505205650 12 136 0.0 16.1 0.00 0.00 0.00 77 1002.5
20260505204824 12 167 3.2 19.3 0.00 0.00 0.00 78 1004.1
20260505204151 12 134 3.2 16.1 0.00 0.00 0.00 78 1002.7
20260505203343 12 188 3.2 17.7 0.00 0.00 0.00 79 1004.2
20260505202651 12 115 3.2 16.1 0.00 0.00 0.00 80 1002.9
20260505201822 12 147 0.0 14.5 0.00 0.00 0.00 81 1004.4
20260505201150 12 207 6.4 16.1 0.00 0.00 0.00 81 1002.7
20260505200343 12 196 3.2 27.4 0.00 0.00 0.00 82 1003.7
20260505195651 12 210 4.8 16.1 0.00 0.00 0.00 81 1002.3
20260505194821 13 205 1.6 14.5 0.00 0.00 0.00 81 1003.2
20260505194150 13 188 1.6 16.1 0.00 0.00 0.00 80 1002.1
20260505193319 13 239 4.8 16.1 0.00 0.00 0.00 80 1003.8
20260505192652 13 198 1.6 16.1 0.00 0.00 0.00 80 1002.3
20260505191818 13 209 3.2 19.3 0.00 0.00 0.00 81 1003.7
20260505191151 13 109 3.2 16.1 0.00 0.00 0.00 80 1001.7
20260505190321 13 184 1.6 17.7 0.00 0.00 0.00 81 1003.2
20260505185650 13 154 1.6 16.1 0.00 0.00 0.00 80 1001.7
20260505184820 13 206 4.8 19.3 0.00 0.00 0.00 81 1003.2
20260505184151 13 241 4.8 16.1 0.00 0.00 0.00 82 1001.7
20260505183320 13 246 4.8 16.1 0.00 0.00 0.00 82 1003.3
20260505182651 13 146 4.8 16.1 0.00 0.00 0.00 82 1001.5
20260505181823 13 197 3.2 19.3 0.00 0.00 0.00 82 1003.0
20260505181150 13 169 3.2 16.1 0.00 0.00 0.00 81 1001.1
20260505180323 13 201 1.6 16.1 0.00 0.00 0.00 82 1002.6
20260505175651 14 156 12.9 16.1 0.00 0.00 0.00 82 1000.9
20260505174822 14 125 3.2 16.1 0.00 0.00 0.00 82 1002.5
20260505174150 14 92 1.6 16.1 0.00 0.00 0.00 82 1000.7
20260505173325 14 59 4.8 20.9 0.00 0.00 0.00 83 1002.4
20260505172650 14 144 6.4 16.1 0.00 0.00 0.00 83 1000.5
20260505171823 14 117 1.6 20.9 0.00 0.00 0.00 83 1002.3
20260505171151 14 89 0.0 16.1 0.00 0.00 0.00 83 1000.3
20260505170320 15 159 9.7 30.6 0.00 0.00 0.00 82 1001.7
20260505165651 15 183 6.4 16.1 0.00 0.00 0.00 82 999.6
20260505164823 15 215 6.4 20.9 0.00 0.00 0.00 81 1001.5
20260505164150 16 194 4.8 16.1 0.00 0.00 0.00 80 999.3
20260505163323 17 129 9.7 25.7 0.00 0.00 0.00 80 1001.0
20260505162650 17 196 6.4 16.1 0.00 0.00 0.00 80 998.8
20260505161815 18 150 6.4 22.5 0.00 0.00 0.00 79 1000.3
20260505161150 19 142 0.0 16.1 0.00 0.00 0.00 80 997.9
20260505160333 20 141 6.4 20.9 0.00 0.00 0.00 76 999.4
20260505153328 22 188 0.0 4.8 0.00 0.00 0.00 79 998.9
20260505152652 22 210 0.0 16.1 0.00 0.00 0.00 78 997.1
20260505151825 22 210 0.0 1.6 0.00 0.00 0.00 77 998.6
20260505151151 22 214 0.0 16.1 0.00 0.00 0.00 78 996.5
20260505150326 22 258 0.0 4.8 0.00 0.00 0.00 78 998.3
20260505140324 22 314 0.0 3.2 0.00 0.00 0.00 78 997.9
20260505124906 20 196 0.0 16.1 0.00 0.00 0.00 85 995.8
20260505124849 20 196 0.0 0.0 0.00 0.00 0.00 85 997.6
20260505123407 20 196 0.0 16.1 0.00 0.00 0.00 84 995.7
20260505123345 20 196 0.0 1.6 0.00 0.00 0.00 84 997.5
20260505121906 20 348 0.0 16.1 0.00 0.00 0.00 84 995.4
20260505121822 20 353 0.0 1.6 0.00 0.00 0.00 84 997.2
20260505120408 20 270 0.0 16.1 0.00 0.00 0.00 84 994.9
20260505120321 20 308 0.0 1.6 0.00 0.00 0.00 84 996.8
20260505114907 20 324 0.0 16.1 0.00 0.00 0.00 83 994.5
20260505114832 20 324 0.0 6.4 0.00 0.00 0.00 83 996.3
20260505113406 20 315 0.0 16.1 0.00 0.00 0.00 83 994.1
20260505113313 20 315 0.0 1.6 0.00 0.00 0.00 83 995.9
20260505111907 20 318 0.0 16.1 0.00 0.00 0.00 82 993.9
20260505111826 20 317 0.0 4.8 0.00 0.00 0.00 82 995.7
20260505110407 20 47 0.0 16.1 0.00 0.00 0.00 81 993.8
20260505110345 20 47 0.0 4.8 0.00 0.00 0.00 81 995.5
20260505101907 21 33 1.6 16.1 0.00 0.00 0.00 80 993.6
20260505101840 21 19 0.0 6.4 0.00 0.00 0.00 80 995.3
20260505100407 21 286 0.0 16.1 0.00 0.00 0.00 79 993.7
20260505100311 21 221 1.6 11.3 0.00 0.00 0.00 79 995.4
20260505094906 21 40 1.6 16.1 0.00 0.00 0.00 79 993.5
20260505094813 21 42 3.2 11.3 0.00 0.00 0.00 79 995.2
20260505093407 21 68 0.0 16.1 0.00 0.00 0.00 80 993.6
20260505093351 21 52 0.0 9.7 0.00 0.00 0.00 79 995.3
20260505091906 21 338 0.0 16.1 0.00 0.00 0.00 79 993.8
20260505091829 21 57 0.0 8.0 0.00 0.00 0.00 79 995.5
20260505090408 21 336 1.6 16.1 0.00 0.00 0.00 80 993.9
20260505090322 21 31 1.6 8.0 0.00 0.00 0.00 80 995.6
20260505084907 21 50 1.6 16.1 0.00 0.00 0.00 79 993.9
20260505084822 21 319 0.0 8.0 0.00 0.00 0.00 79 995.6
20260505083406 21 341 0.0 16.1 0.00 0.00 0.00 79 993.9
20260505083338 21 331 0.0 6.4 0.00 0.00 0.00 79 995.8
20260505081907 21 338 0.0 16.1 0.00 0.00 0.00 79 994.1
20260505081812 21 316 0.0 9.7 0.00 0.00 0.00 79 995.9
20260505080407 21 38 1.6 16.1 0.00 0.00 0.00 79 994.2
20260505080311 21 334 1.6 9.7 0.00 0.00 0.00 79 996.0
20260505074906 21 48 3.2 16.1 0.00 0.00 0.00 79 994.3
20260505074828 21 292 3.2 9.7 0.00 0.00 0.00 79 996.0
20260505073408 21 353 1.6 16.1 0.00 0.00 0.00 79 994.4
20260505073324 21 30 1.6 11.3 0.00 0.00 0.00 79 996.1
20260505071907 21 341 1.6 16.1 0.00 0.00 0.00 79 994.8
20260505071831 21 52 3.2 22.5 0.00 0.00 0.00 79 996.5
20260505070406 21 317 0.0 16.1 0.00 0.00 0.00 78 994.9
20260505070321 21 339 3.2 11.3 0.00 0.00 0.00 78 996.6
20260505064906 21 284 3.2 16.1 0.00 0.00 0.00 78 995.1
20260505064819 21 337 3.2 17.7 0.00 0.00 0.00 78 996.8
20260505063406 21 305 3.2 16.1 0.00 0.00 0.00 78 995.2
20260505063313 21 4 1.6 11.3 0.00 0.00 0.00 78 996.9
20260505061906 21 38 3.2 16.1 0.00 0.00 0.00 78 995.3
20260505061817 21 350 3.2 12.9 0.00 0.00 0.00 78 997.0
20260505060407 21 337 3.2 16.1 0.00 0.00 0.00 78 995.6
20260505060328 21 319 1.6 12.9 0.00 0.00 0.00 78 997.3
20260505054907 21 347 0.0 16.1 0.00 0.00 0.00 78 995.8
20260505054828 21 9 3.2 14.5 0.00 0.00 0.00 78 997.5
20260505053407 21 308 6.4 16.1 0.00 0.00 0.00 78 995.7
20260505053326 21 312 1.6 8.0 0.00 0.00 0.00 78 997.5
20260505051907 21 324 3.2 16.1 0.00 0.00 0.00 77 995.8
20260505051826 21 42 1.6 12.9 0.00 0.00 0.00 77 997.5
20260505050406 21 104 0.0 16.1 0.00 0.00 0.00 77 995.9
20260505050329 21 341 4.8 11.3 0.00 0.00 0.00 77 997.7
20260505040407 22 316 8.0 16.1 0.00 0.00 0.00 74 996.3
20260505040321 22 116 3.2 14.5 0.00 0.00 0.00 74 998.0
20260505034906 22 347 1.6 16.1 0.00 0.00 0.00 73 996.2
20260505034813 22 73 4.8 17.7 0.00 0.00 0.00 73 997.9
20260505033407 22 250 1.6 16.1 0.00 0.00 0.00 73 996.2
20260505033314 22 66 4.8 19.3 0.00 0.00 0.00 73 997.9
20260505031907 22 4 3.2 16.1 0.00 0.00 0.00 72 996.2
20260505031851 22 313 4.8 19.3 0.00 0.00 0.00 72 997.9
20260505030407 23 316 6.4 16.1 0.00 0.00 0.00 71 996.2
20260505030326 23 350 8.0 17.7 0.00 0.00 0.00 71 997.9